| time (UTC) | temp F | wind direction | speed knots | gust knots | rain 1hr in | rain 24hr in | rain mn in | humidity % | barometer mb |
| 20260504130731 | 59 | 269 | 6.1 | 7.8 | 0.00 | 0.00 | 0.00 | 56 | 998.9 |
| 20260504130226 | 59 | 335 | 10.4 | 11.3 | 0.00 | 0.00 | 0.00 | 55 | 998.8 |
| 20260504120150 | 59 | 290 | 4.3 | 7.8 | 0.00 | 0.00 | 0.00 | 50 | 998.0 |
| 20260504110618 | 59 | 254 | 6.1 | 12.2 | 0.00 | 0.00 | 0.00 | 48 | 996.8 |
| 20260504110114 | 59 | 222 | 1.7 | 1.7 | 0.00 | 0.00 | 0.00 | 48 | 997.0 |
| 20260504100540 | 56 | 225 | 0.9 | 1.7 | 0.00 | 0.00 | 0.00 | 52 | 997.4 |
| 20260504081933 | 55 | 222 | 2.6 | 2.6 | 0.00 | 0.00 | 0.00 | 50 | 999.3 |
| 20260504081430 | 55 | 205 | 0.0 | 0.0 | 0.00 | 0.00 | 0.00 | 50 | 999.3 |
| 20260504080926 | 55 | 191 | 0.0 | 0.0 | 0.00 | 0.00 | 0.00 | 50 | 999.2 |
| 20260504080423 | 55 | 220 | 0.0 | 2.6 | 0.00 | 0.00 | 0.00 | 50 | 999.4 |
| 20260504070351 | 56 | 197 | 0.0 | 0.0 | 0.00 | 0.00 | 0.00 | 50 | 1000.2 |
| 20260504050738 | 54 | 189 | 0.0 | 0.0 | 0.00 | 0.00 | 0.00 | 53 | 1003.0 |
| 20260504050235 | 54 | 189 | 0.0 | 0.0 | 0.00 | 0.00 | 0.00 | 53 | 1003.0 |
| 20260504045732 | 54 | 186 | 0.0 | 0.0 | 0.00 | 0.00 | 0.00 | 53 | 1003.1 |
| 20260504045227 | 54 | 181 | 0.0 | 0.0 | 0.00 | 0.00 | 0.00 | 54 | 1003.3 |
| 20260504044725 | 55 | 181 | 0.0 | 0.0 | 0.00 | 0.00 | 0.00 | 53 | 1003.2 |
| 20260504044222 | 55 | 183 | 0.0 | 0.0 | 0.00 | 0.00 | 0.00 | 52 | 1003.0 |
| 20260504043720 | 55 | 183 | 0.0 | 0.0 | 0.00 | 0.00 | 0.00 | 53 | 1003.2 |
| 20260504043216 | 55 | 184 | 0.0 | 0.0 | 0.00 | 0.00 | 0.00 | 53 | 1003.5 |
| 20260504042714 | 55 | 185 | 0.0 | 0.0 | 0.00 | 0.00 | 0.00 | 53 | 1003.6 |
| 20260504042210 | 55 | 183 | 0.0 | 0.0 | 0.00 | 0.00 | 0.00 | 53 | 1003.7 |
| 20260504041706 | 55 | 183 | 0.0 | 0.0 | 0.00 | 0.00 | 0.00 | 53 | 1003.8 |
| 20260504041202 | 55 | 183 | 0.0 | 0.0 | 0.00 | 0.00 | 0.00 | 53 | 1003.8 |
| 20260504040659 | 55 | 182 | 0.0 | 0.0 | 0.00 | 0.00 | 0.00 | 53 | 1003.9 |
| 20260504040156 | 55 | 183 | 0.0 | 0.0 | 0.00 | 0.00 | 0.00 | 54 | 1004.2 |
| 20260504035652 | 55 | 183 | 0.0 | 0.0 | 0.00 | 0.00 | 0.00 | 54 | 1004.3 |
| 20260504035150 | 56 | 183 | 0.0 | 0.0 | 0.00 | 0.00 | 0.00 | 51 | 1004.1 |
| 20260504034647 | 55 | 184 | 0.0 | 0.0 | 0.00 | 0.00 | 0.00 | 51 | 1004.5 |
| 20260504034144 | 55 | 197 | 0.0 | 0.0 | 0.00 | 0.00 | 0.00 | 53 | 1004.5 |
| 20260504033642 | 55 | 223 | 0.0 | 0.0 | 0.00 | 0.00 | 0.00 | 54 | 1004.7 |
| 20260504033139 | 54 | 224 | 0.0 | 0.0 | 0.00 | 0.00 | 0.00 | 51 | 1004.7 |
| 20260504032635 | 54 | 224 | 0.0 | 0.0 | 0.00 | 0.00 | 0.00 | 51 | 1005.0 |
| 20260504032133 | 54 | 224 | 0.0 | 0.0 | 0.00 | 0.00 | 0.00 | 52 | 1005.0 |
| 20260504031630 | 55 | 224 | 0.0 | 0.0 | 0.00 | 0.00 | 0.00 | 50 | 1004.9 |
| 20260504031126 | 55 | 224 | 0.0 | 0.0 | 0.00 | 0.00 | 0.00 | 50 | 1004.9 |
| 20260504030623 | 56 | 224 | 0.0 | 0.0 | 0.00 | 0.00 | 0.00 | 49 | 1005.1 |
| 20260504030120 | 57 | 224 | 0.0 | 0.0 | 0.00 | 0.00 | 0.00 | 47 | 1005.1 |
| 20260504025616 | 57 | 224 | 0.0 | 0.0 | 0.00 | 0.00 | 0.00 | 47 | 1005.1 |
| 20260504025113 | 57 | 224 | 0.0 | 0.0 | 0.00 | 0.00 | 0.00 | 46 | 1005.3 |
| 20260504024611 | 58 | 224 | 0.0 | 0.0 | 0.00 | 0.00 | 0.00 | 46 | 1005.3 |
| 20260504024107 | 58 | 224 | 0.0 | 0.0 | 0.00 | 0.00 | 0.00 | 45 | 1005.3 |
| 20260504023604 | 59 | 224 | 0.0 | 0.0 | 0.00 | 0.00 | 0.00 | 44 | 1005.3 |
| 20260504023059 | 60 | 224 | 0.0 | 0.0 | 0.00 | 0.00 | 0.00 | 42 | 1005.4 |
| 20260504022556 | 61 | 224 | 0.0 | 0.0 | 0.00 | 0.00 | 0.00 | 40 | 1005.2 |
| 20260504022052 | 61 | 224 | 0.0 | 0.0 | 0.00 | 0.00 | 0.00 | 40 | 1005.3 |
| 20260504021550 | 61 | 224 | 0.0 | 0.0 | 0.00 | 0.00 | 0.00 | 40 | 1005.3 |
| 20260504021046 | 62 | 224 | 0.0 | 0.0 | 0.00 | 0.00 | 0.00 | 40 | 1005.3 |
| 20260504020543 | 62 | 224 | 0.0 | 0.0 | 0.00 | 0.00 | 0.00 | 39 | 1005.4 |
| 20260504020040 | 62 | 225 | 0.0 | 0.0 | 0.00 | 0.00 | 0.00 | 39 | 1005.5 |
| 20260504015537 | 63 | 225 | 0.0 | 0.0 | 0.00 | 0.00 | 0.00 | 38 | 1005.3 |
| 20260504015032 | 63 | 220 | 0.0 | 0.0 | 0.00 | 0.00 | 0.00 | 38 | 1005.4 |
| 20260504014529 | 63 | 218 | 0.0 | 0.0 | 0.00 | 0.00 | 0.00 | 38 | 1005.6 |
| 20260504014026 | 63 | 226 | 0.0 | 0.0 | 0.00 | 0.00 | 0.00 | 38 | 1005.5 |
| 20260504013523 | 64 | 226 | 0.0 | 0.0 | 0.00 | 0.00 | 0.00 | 37 | 1005.5 |
| 20260504013020 | 64 | 226 | 0.0 | 0.0 | 0.00 | 0.00 | 0.00 | 36 | 1005.4 |
| 20260504012518 | 64 | 226 | 0.9 | 0.9 | 0.00 | 0.00 | 0.00 | 35 | 1005.4 |
| 20260504012016 | 65 | 207 | 1.7 | 1.7 | 0.00 | 0.00 | 0.00 | 35 | 1005.5 |
| 20260504011512 | 65 | 236 | 0.0 | 0.0 | 0.00 | 0.00 | 0.00 | 34 | 1005.6 |
| 20260504011008 | 66 | 224 | 0.9 | 1.7 | 0.00 | 0.00 | 0.00 | 34 | 1005.7 |
| 20260504010504 | 66 | 225 | 0.9 | 1.7 | 0.00 | 0.00 | 0.00 | 33 | 1005.6 |
| 20260504010000 | 66 | 206 | 0.0 | 0.0 | 0.00 | 0.00 | 0.00 | 33 | 1005.5 |
| 20260504005457 | 67 | 205 | 0.0 | 0.0 | 0.00 | 0.00 | 0.00 | 34 | 1005.6 |
| 20260504004954 | 67 | 237 | 0.0 | 0.0 | 0.00 | 0.00 | 0.00 | 32 | 1005.6 |
| 20260504004452 | 67 | 234 | 0.0 | 0.0 | 0.00 | 0.00 | 0.00 | 33 | 1005.7 |
| 20260504003949 | 67 | 219 | 0.0 | 0.0 | 0.00 | 0.00 | 0.00 | 33 | 1005.6 |
| 20260504003445 | 67 | 213 | 0.0 | 0.0 | 0.00 | 0.00 | 0.00 | 32 | 1005.7 |
| 20260504002942 | 67 | 259 | 0.0 | 0.0 | 0.00 | 0.00 | 0.00 | 32 | 1005.8 |
| 20260504002439 | 68 | 270 | 2.6 | 2.6 | 0.00 | 0.00 | 0.00 | 30 | 1005.7 |
| 20260504001936 | 68 | 225 | 1.7 | 1.7 | 0.00 | 0.00 | 0.00 | 30 | 1005.8 |
| 20260504001433 | 68 | 281 | 2.6 | 5.2 | 0.00 | 0.00 | 0.00 | 30 | 1006.0 |
| 20260504000930 | 68 | 268 | 2.6 | 4.3 | 0.00 | 0.00 | 0.00 | 31 | 1005.8 |
| 20260504000427 | 69 | 253 | 0.0 | 0.0 | 0.00 | 0.00 | 0.00 | 32 | 1005.6 |
| 20260503235924 | 69 | 225 | 2.6 | 2.6 | 0.00 | 0.00 | 0.00 | 30 | 1006.0 |
| 20260503235422 | 69 | 283 | 4.3 | 5.2 | 0.00 | 0.00 | 0.00 | 30 | 1005.9 |
| 20260503234919 | 69 | 264 | 4.3 | 6.1 | 0.00 | 0.00 | 0.00 | 29 | 1006.1 |
| 20260503234417 | 69 | 294 | 3.5 | 5.2 | 0.00 | 0.00 | 0.00 | 29 | 1006.0 |
| 20260503233915 | 69 | 239 | 4.3 | 5.2 | 0.00 | 0.00 | 0.00 | 29 | 1006.2 |
| 20260503233411 | 69 | 251 | 4.3 | 6.1 | 0.00 | 0.00 | 0.00 | 29 | 1006.0 |
| 20260503232908 | 69 | 280 | 3.5 | 4.3 | 0.00 | 0.00 | 0.00 | 29 | 1006.0 |
| 20260503232405 | 69 | 308 | 3.5 | 5.2 | 0.00 | 0.00 | 0.00 | 30 | 1005.9 |
| 20260503231902 | 70 | 274 | 5.2 | 7.0 | 0.00 | 0.00 | 0.00 | 29 | 1006.0 |
| 20260503231400 | 71 | 210 | 3.5 | 5.2 | 0.00 | 0.00 | 0.00 | 29 | 1006.1 |
| 20260503230855 | 70 | 239 | 1.7 | 2.6 | 0.00 | 0.00 | 0.00 | 30 | 1006.0 |
| 20260503230352 | 70 | 301 | 3.5 | 6.1 | 0.00 | 0.00 | 0.00 | 28 | 1005.9 |
| 20260503225850 | 70 | 251 | 2.6 | 5.2 | 0.00 | 0.00 | 0.00 | 29 | 1006.2 |
| 20260503225346 | 70 | 265 | 2.6 | 4.3 | 0.00 | 0.00 | 0.00 | 29 | 1006.3 |
| 20260503224842 | 69 | 253 | 4.3 | 6.1 | 0.00 | 0.00 | 0.00 | 29 | 1006.2 |
| 20260503224339 | 70 | 308 | 6.1 | 8.7 | 0.00 | 0.00 | 0.00 | 29 | 1006.2 |
| 20260503223837 | 70 | 350 | 3.5 | 5.2 | 0.00 | 0.00 | 0.00 | 29 | 1006.4 |
| 20260503223335 | 69 | 281 | 2.6 | 4.3 | 0.00 | 0.00 | 0.00 | 28 | 1006.5 |
| 20260503222830 | 70 | 324 | 6.1 | 7.8 | 0.00 | 0.00 | 0.00 | 28 | 1006.2 |
| 20260503222329 | 70 | 254 | 0.0 | 0.9 | 0.00 | 0.00 | 0.00 | 29 | 1006.3 |
| 20260503221826 | 70 | 292 | 1.7 | 6.1 | 0.00 | 0.00 | 0.00 | 30 | 1006.4 |
| 20260503221325 | 70 | 254 | 3.5 | 4.3 | 0.00 | 0.00 | 0.00 | 28 | 1006.5 |
| 20260503220821 | 69 | 325 | 4.3 | 6.1 | 0.00 | 0.00 | 0.00 | 28 | 1006.3 |
| 20260503220318 | 70 | 263 | 2.6 | 2.6 | 0.00 | 0.00 | 0.00 | 29 | 1006.4 |
| 20260503215814 | 70 | 297 | 1.7 | 6.1 | 0.00 | 0.00 | 0.00 | 29 | 1006.6 |
| 20260503215312 | 69 | 290 | 6.1 | 7.0 | 0.00 | 0.00 | 0.00 | 28 | 1006.7 |
| 20260503214810 | 70 | 301 | 4.3 | 5.2 | 0.00 | 0.00 | 0.00 | 28 | 1006.6 |
| 20260503214306 | 69 | 323 | 3.5 | 6.1 | 0.00 | 0.00 | 0.00 | 28 | 1006.7 |
| 20260503213804 | 69 | 282 | 8.7 | 11.3 | 0.00 | 0.00 | 0.00 | 27 | 1006.6 |
| 20260503213301 | 69 | 292 | 0.0 | 0.0 | 0.00 | 0.00 | 0.00 | 28 | 1006.8 |
| 20260503212758 | 69 | 299 | 4.3 | 6.1 | 0.00 | 0.00 | 0.00 | 29 | 1007.0 |
| 20260503212256 | 69 | 294 | 5.2 | 6.1 | 0.00 | 0.00 | 0.00 | 29 | 1007.0 |
| 20260503211753 | 70 | 270 | 7.8 | 8.7 | 0.00 | 0.00 | 0.00 | 28 | 1006.9 |
| 20260503211249 | 69 | 255 | 1.7 | 4.3 | 0.00 | 0.00 | 0.00 | 31 | 1006.9 |
| 20260503210744 | 68 | 347 | 1.7 | 1.7 | 0.00 | 0.00 | 0.00 | 31 | 1006.7 |
| 20260503210242 | 69 | 250 | 2.6 | 2.6 | 0.00 | 0.00 | 0.00 | 30 | 1007.1 |
| 20260503205742 | 69 | 350 | 6.1 | 7.8 | 0.00 | 0.00 | 0.00 | 29 | 1006.9 |
| 20260503205239 | 70 | 332 | 4.3 | 6.1 | 0.00 | 0.00 | 0.00 | 29 | 1007.3 |
| 20260503204735 | 69 | 236 | 0.0 | 0.0 | 0.00 | 0.00 | 0.00 | 32 | 1007.1 |
| 20260503204233 | 69 | 292 | 0.0 | 0.9 | 0.00 | 0.00 | 0.00 | 31 | 1007.2 |
| 20260503203730 | 70 | 354 | 4.3 | 6.1 | 0.00 | 0.00 | 0.00 | 28 | 1007.2 |
| 20260503203228 | 69 | 232 | 0.9 | 1.7 | 0.00 | 0.00 | 0.00 | 29 | 1007.2 |
| 20260503202725 | 70 | 316 | 5.2 | 6.1 | 0.00 | 0.00 | 0.00 | 29 | 1007.1 |
| 20260503202223 | 68 | 300 | 0.0 | 0.0 | 0.00 | 0.00 | 0.00 | 30 | 1007.2 |
| 20260503201720 | 68 | 277 | 4.3 | 5.2 | 0.00 | 0.00 | 0.00 | 34 | 1007.2 |
| 20260503201218 | 69 | 256 | 2.6 | 2.6 | 0.00 | 0.00 | 0.00 | 33 | 1007.3 |
| 20260503200714 | 69 | 315 | 4.3 | 6.1 | 0.00 | 0.00 | 0.00 | 36 | 1007.2 |
| 20260503200210 | 69 | 275 | 7.8 | 9.6 | 0.00 | 0.00 | 0.00 | 33 | 1007.6 |
| 20260503195707 | 69 | 210 | 0.0 | 0.9 | 0.00 | 0.00 | 0.00 | 33 | 1007.5 |
| 20260503195204 | 68 | 271 | 4.3 | 6.1 | 0.00 | 0.00 | 0.00 | 34 | 1007.4 |
| 20260503194701 | 68 | 329 | 4.3 | 6.1 | 0.00 | 0.00 | 0.00 | 34 | 1007.8 |
| 20260503194156 | 67 | 325 | 2.6 | 4.3 | 0.00 | 0.00 | 0.00 | 34 | 1007.9 |
| 20260503193653 | 69 | 256 | 3.5 | 5.2 | 0.00 | 0.00 | 0.00 | 34 | 1007.8 |
| 20260503193149 | 68 | 216 | 5.2 | 7.0 | 0.00 | 0.00 | 0.00 | 32 | 1007.7 |
| 20260503192645 | 67 | 315 | 9.6 | 13.0 | 0.00 | 0.00 | 0.00 | 32 | 1008.0 |
| 20260503192141 | 68 | 338 | 7.8 | 8.7 | 0.00 | 0.00 | 0.00 | 33 | 1008.0 |
| 20260503191638 | 67 | 27 | 3.5 | 5.2 | 0.00 | 0.00 | 0.00 | 34 | 1007.9 |
| 20260503191135 | 68 | 0 | 2.6 | 4.3 | 0.00 | 0.00 | 0.00 | 33 | 1008.0 |
| 20260503190632 | 66 | 289 | 7.0 | 8.7 | 0.00 | 0.00 | 0.00 | 35 | 1007.8 |
| 20260503190129 | 67 | 256 | 8.7 | 12.2 | 0.00 | 0.00 | 0.00 | 34 | 1008.1 |
| 20260503185625 | 67 | 323 | 0.0 | 0.0 | 0.00 | 0.00 | 0.00 | 35 | 1007.9 |
| 20260503185120 | 68 | 15 | 4.3 | 7.0 | 0.00 | 0.00 | 0.00 | 33 | 1008.2 |
| 20260503184616 | 67 | 218 | 4.3 | 6.1 | 0.00 | 0.00 | 0.00 | 33 | 1008.0 |
| 20260503184113 | 67 | 346 | 5.2 | 7.8 | 0.00 | 0.00 | 0.00 | 32 | 1008.1 |
| 20260503183609 | 67 | 327 | 6.1 | 7.8 | 0.00 | 0.00 | 0.00 | 31 | 1008.1 |
| 20260503183107 | 67 | 301 | 13.0 | 19.1 | 0.00 | 0.00 | 0.00 | 34 | 1008.1 |
| 20260503182605 | 66 | 296 | 4.3 | 5.2 | 0.00 | 0.00 | 0.00 | 38 | 1008.1 |
| 20260503182102 | 67 | 335 | 6.1 | 11.3 | 0.00 | 0.00 | 0.00 | 36 | 1008.0 |
| 20260503181559 | 66 | 276 | 5.2 | 7.8 | 0.00 | 0.00 | 0.00 | 37 | 1008.1 |
| 20260503181056 | 66 | 318 | 5.2 | 6.1 | 0.00 | 0.00 | 0.00 | 35 | 1008.3 |
| 20260503180553 | 67 | 320 | 9.6 | 13.0 | 0.00 | 0.00 | 0.00 | 38 | 1008.5 |
| 20260503180050 | 66 | 335 | 6.1 | 7.0 | 0.00 | 0.00 | 0.00 | 41 | 1008.2 |
| 20260503175547 | 66 | 245 | 4.3 | 7.0 | 0.00 | 0.00 | 0.00 | 40 | 1008.5 |
| 20260503175045 | 66 | 347 | 6.1 | 7.0 | 0.00 | 0.00 | 0.00 | 37 | 1008.5 |
| 20260503174542 | 66 | 10 | 2.6 | 4.3 | 0.00 | 0.00 | 0.00 | 41 | 1008.5 |
| 20260503174038 | 66 | 302 | 5.2 | 8.7 | 0.00 | 0.00 | 0.00 | 42 | 1008.6 |
| 20260503173533 | 65 | 266 | 7.8 | 9.6 | 0.00 | 0.00 | 0.00 | 42 | 1008.3 |
| 20260503173029 | 66 | 332 | 8.7 | 11.3 | 0.00 | 0.00 | 0.00 | 42 | 1008.5 |
| 20260503172527 | 66 | 338 | 11.3 | 13.0 | 0.00 | 0.00 | 0.00 | 42 | 1008.6 |
| 20260503172024 | 66 | 268 | 4.3 | 6.1 | 0.00 | 0.00 | 0.00 | 43 | 1008.3 |
| 20260503171521 | 66 | 285 | 6.1 | 8.7 | 0.00 | 0.00 | 0.00 | 43 | 1008.3 |
| 20260503171018 | 66 | 338 | 8.7 | 11.3 | 0.00 | 0.00 | 0.00 | 44 | 1008.5 |
| 20260503170514 | 65 | 271 | 6.1 | 8.7 | 0.00 | 0.00 | 0.00 | 45 | 1008.5 |
| 20260503150907 | 62 | 276 | 9.6 | 13.0 | 0.00 | 0.00 | 0.00 | 51 | 1008.2 |
| 20260503150403 | 62 | 334 | 2.6 | 5.2 | 0.00 | 0.00 | 0.00 | 51 | 1008.3 |